Find Starlink 32704

NORAD ID: 62826 Int'l Des: 2025-018 Owner: SPXS Country: US Constellation: starlink operational
LEOCIRCULAR

現在のビュー

3D地球を読み込み中...

About Starlink 32704

Starlink 32704 (NORAD 62826) is a starlink constellation satellite (v2 mini) launched Jan 24, 2025 by SPXS of US. It operates in LEO, CIRCULAR orbit with a mass of 730.00 kg.

次回通過

Passes for default location (London). Set your location on the main map for personalized predictions.

高度履歴

Loading altitude history...

軌道要素

1 62826U 25018W 26263.28669527 .00075488 00000-0 99931-3 0 9990
2 62826 53.1463 110.5540 0003362 133.2634 226.8660 15.57653733 93175
Epoch: Sep 20, 2026 • Age: 32 hours

現在のステータス

高度 397.9 km
遠地点 / 近地点 N/A
速度 7.67 km/s
衛星直下点 -7.18°S, 129.54°W
打ち上げ日 Jan 24, 2025
運用期間 1.6 years
タイプ internet

技術仕様

分類 Payload
質量 730.00 kg
乾燥質量 700.00 kg
長さ 0.30 m
スパン 29.00 m
形状 ? Box + pan
製造者 SPXS
バスタイプ Starlink V2M
フェーズステータス In Orbit
所有者/国 SPXS/US

Most Searched